Regional Weather Roundup
Issued by NWS

Home | Current Version | Previous Version | Graphics & Text | Print | Product List | Glossary Off
Versions: 1 2 3 4 5 6 7 8 9 10 11 12 13 14 15 16 17 18 19 20 21 22 23 24 25 26 27 28 29 30 31 32 33 34 35 36 37 38 39 40 41 42 43 44 45 46 47 48 49 50

000
ASUS43 KTOP 051208
RWRKS

WEATHER ROUNDUP FOR KANSAS
NATIONAL WEATHER SERVICE GOODLAND KS
700 AM CDT SUN JUL 05 2015

NOTE:  "FAIR" INDICATES FEW OR NO CLOUDS BELOW 12,000 FEET WITH NO
SIGNIFICANT WEATHER AND/OR OBSTRUCTIONS TO VISIBILITY.

KSZ001>006-013>018-027>032-041>047-051300-
NORTHWEST KANSAS

CITY           SKY/WX    TMP DP  RH WIND       PRES   REMARKS
GOODLAND       CLEAR     67  62  84 S14       29.89F
6HR MIN TEMP:  67; 6HR MAX TEMP:  75;

HAYS           MOCLDY    72  61  68 S8        29.88F
HILL CITY      MOCLDY    74  66  76 W8        29.85F
6HR MIN TEMP:  73; 6HR MAX TEMP:  79; 6HR PCP: TRACE;

RUSSELL        PTCLDY    72  67  84 S15       29.87S
6HR MIN TEMP:  71; 6HR MAX TEMP:  77;

$$

KSZ061>065-074>080-084>089-051300-
SOUTHWEST KANSAS

CITY           SKY/WX    TMP DP  RH WIND       PRES   REMARKS
DODGE CITY     CLOUDY    71  64  78 S12       29.93F
6HR MIN TEMP:  71; 6HR MAX TEMP:  74; 6HR PCP: TRACE;

ELKHART          N/A     71  57  61 SW9         N/A
GARDEN CITY    PTCLDY    70  64  81 SE15      29.91S
6HR MIN TEMP:  69; 6HR MAX TEMP:  75;

GREAT BEND     MOCLDY    72  64  78 S12       29.91S
LIBERAL        CLEAR     70  61  73 S10       29.96S
PRATT          PTCLDY    70  66  88 S10       29.94S
$$

KSZ066>073-081>083-090>101-051300-
SOUTHEAST KANSAS

CITY           SKY/WX    TMP DP  RH WIND       PRES   REMARKS
CHANUTE        PTCLDY    71  69  93 SE9       29.99R FOG
6HR MIN TEMP:  69; 6HR MAX TEMP:  72;

COFFEYVILLE    CLOUDY    73  69  87 S10       29.99R
6HR MIN TEMP:  69; 6HR MAX TEMP:  74;

HUTCHINSON     PTCLDY    73  69  87 S9        29.92S
6HR MIN TEMP:  73; 6HR MAX TEMP:  77;

MEDICINE LODGE   N/A     71  69  93 SE7       29.92S
NEWTON         MOCLDY    72  64  78 SE8       29.96S
PARSONS        MOCLDY    73  70  90 S6        30.00R
6HR MIN TEMP:  70; 6HR MAX TEMP:  76;

WICHITA INTL   MOCLDY    74  69  85 S9        29.93S
6HR MIN TEMP:  73; 6HR MAX TEMP:  77;

WICHITA JABRA  MOCLDY    73  69  87 S7        29.94S
6HR MIN TEMP:  72; 6HR MAX TEMP:  74;

WICHITA MCCONL PTCLDY    73  69  88 SE8       29.94S
WINFIELD       PTCLDY    73  70  90 SE9       29.96R
6HR MIN TEMP:  73; 6HR MAX TEMP:  77;

$$

KSZ007>012-019>026-033>040-048>060-102>105-051300-
NORTHEAST KANSAS

CITY           SKY/WX    TMP DP  RH WIND       PRES   REMARKS
CONCORDIA      CLOUDY    73  67  81 S14       29.88F
6HR MIN TEMP:  71; 6HR MAX TEMP:  74;

EMPORIA        CLEAR     70  67  90 SE10      29.96S
6HR MIN TEMP:  68; 6HR MAX TEMP:  71;

LAWRENCE       CLEAR     67  64  90 E7        29.98R FOG
6HR MIN TEMP:  65; 6HR MAX TEMP:  67;

MANHATTAN      PTCLDY    72  68  87 S7        29.92F
6HR MIN TEMP:  69; 6HR MAX TEMP:  74;

MARYSVILLE     PTCLDY    68  66  94 SE7       29.92S
OLATHE IND     PTCLDY    69  66  90 SE8       30.00R FOG
6HR MIN TEMP:  67; 6HR MAX TEMP:  70;

OLATHE EXE     PTCLDY    67  66  97 S8        29.99R FOG
6HR MIN TEMP:  66; 6HR MAX TEMP:  69;

SALINA         CLOUDY    77  68  73 S12       29.89F
6HR MIN TEMP:  76; 6HR MAX TEMP:  78;

TOPEKA BILLARD CLEAR     70  66  87 E5        29.96S FOG
6HR MIN TEMP:  68; 6HR MAX TEMP:  70;

TOPEKA FORBES  CLEAR     69  65  86 SE7       29.96S FOG
6HR MIN TEMP:  69; 6HR MAX TEMP:  70;

$$


USA.gov is the U.S. government's official web portal to all federal, state and local government web resources and services.